Hourly Data Report for October 15, 2015

All times are specified in Local Standard Time (LST). Add 1 hour to adjust for Daylight Saving Time where and when it is observed.

ST LEONARD CS
NEW BRUNSWICK

47°09'28.050" N
67°49'55.014" W
245.00 m
810I001
71019
WIY

Download Data

Hourly Data (October 2015)
Hourly Data Report for October 15, 2015
Temp Definition
°C
Dew Point Temp Definition
°C
Rel Hum Definition
%
Wind Dir Definition
10's deg

Wind Spd Definition
km/h
Visibility Definition
km
Stn Press Definition
kPa
Hmdx Definition


Wind Chill Definition


Weather Definition


TIME
00:00 4.3 -0.3 72 29 17   97.51     LegendNANA
01:00 2.3 -0.5 82 27 10   97.56     LegendNANA
02:00 1.3 -0.5 88 29 10   97.59     LegendNANA
03:00 0.3 -1.0 91 26 7   97.63     LegendNANA
04:00 0.7 -1.0 88 29 12   97.66     LegendNANA
05:00 0.0 -1.4 90 31 6   97.70   -2 LegendNANA
06:00 -1.0 -2.3 91 25 7   97.76   -4 LegendNANA
07:00 -1.5 -2.8 91 25 7   97.81   -4 LegendNANA
08:00 -0.1 -2.7 82 25 7   97.88   -3 LegendNANA
09:00 2.0 -2.5 72 26 8   97.92     LegendNANA
10:00 4.7 -1.6 63 26 16   97.93     LegendNANA
11:00 5.7 -1.5 60 28 11   97.92     LegendNANA
12:00 7.2 -1.7 53 24 11   97.89     LegendNANA
13:00 8.6 0.6 57 25 19   97.85     LegendNANA
14:00 8.7 1.3 60 24 17   97.80     LegendNANA
15:00 8.9 2.0 62 21 11   97.80     LegendNANA
16:00 8.9 2.2 63 23 11   97.82     LegendNANA
17:00 9.0 2.4 63 23 18   97.83     LegendNANA
18:00 8.0 2.7 69 23 8   97.86     LegendNANA
19:00 6.6 2.5 75 23 7   97.93     LegendNANA
20:00 5.6 2.1 78 24 7   97.94     LegendNANA
21:00 5.2 2.8 84 22 6   97.95     LegendNANA
22:00 2.9 1.5 90 17 4   97.94     LegendNANA
23:00 4.2 3.6 96 13 5   97.93     LegendNANA

Notes on Data Quality.

Legend

  • E = Estimated
  • M = Missing
  • NA = Not Available
  • ‡ = Partner data that is not subject to review by the National Climate Archives
Date modified: